This is the latest recevied weather packets stored in our database for station/object AD8IZ-13. If no packets are shown the sender has not sent any weather packets the latest 10 day(s).
| Time | Temp. | Humidity | Pressure | Rain* | Wind** | Luminosity | Snow |
|---|---|---|---|---|---|---|---|
| 1787454321 | 20.56° C | 83% | 1012.6 hPa | 0 mm | - | 0 W/m² | - |
| 1787453719 | 20.56° C | 83% | 1012.6 hPa | 0 mm | - | 0 W/m² | - |
| 1787453118 | 20.56° C | 84% | 1012.6 hPa | 0 mm | - | 0 W/m² | - |
| 1787452518 | 20.56° C | 84% | 1012.6 hPa | 0 mm | - | 0 W/m² | - |
| 1787451918 | 20.56° C | 85% | 1012.7 hPa | 0 mm | - | 0 W/m² | - |
| 1787451321 | 20.56° C | 85% | 1012.6 hPa | 0 mm | - | 0 W/m² | - |
| 1787450720 | 21.11° C | 85% | 1012.5 hPa | 0 mm | - | 0 W/m² | - |
| 1787450119 | 21.11° C | 85% | 1012.3 hPa | 0 mm | - | 0 W/m² | - |
| 1787449519 | 21.11° C | 84% | 1012.2 hPa | 0 mm | - | 0 W/m² | - |
| 1787448919 | 21.11° C | 84% | 1012.1 hPa | 0 mm | - | 0 W/m² | - |
| 1787448320 | 21.67° C | 83% | 1012 hPa | 0 mm | - | 0 W/m² | - |
| 1787447719 | 21.67° C | 82% | 1011.8 hPa | 0 mm | - | 0 W/m² | - |
| 1787447119 | 22.22° C | 80% | 1011.7 hPa | 0 mm | - | 0 W/m² | - |
| 1787446521 | 22.78° C | 79% | 1011.6 hPa | 0 mm | - | 0 W/m² | - |
| 1787445920 | 22.78° C | 78% | 1011.3 hPa | 0 mm | - | 0 W/m² | - |
| 1787445317 | 22.78° C | 77% | 1011.2 hPa | 0 mm | - | 1 W/m² | - |
| 1787444721 | 23.33° C | 76% | 1011 hPa | 0 mm | - | 2 W/m² | - |
| 1787444122 | 23.33° C | 75% | 1010.9 hPa | 0 mm | - | 6 W/m² | - |
| 1787443521 | 23.89° C | 74% | 1010.8 hPa | 0 mm | - | 13 W/m² | - |
| 1787442918 | 23.89° C | 74% | 1010.7 hPa | 0 mm | - | 20 W/m² | - |
| 1787442319 | 23.89° C | 74% | 1010.5 hPa | 0 mm | - | 27 W/m² | - |
| 1787441718 | 24.44° C | 74% | 1010.4 hPa | 0 mm | - | 31 W/m² | - |
| 1787441119 | 24.44° C | 73% | 1010.5 hPa | 0 mm | - | 48 W/m² | - |
| 1787440519 | 24.44° C | 74% | 1010.3 hPa | 0 mm | - | 97 W/m² | - |
| 1787439919 | 24.44° C | 81% | 1010.2 hPa | 0 mm | - | 51 W/m² | - |
* Rain latest hour (hover to see other rain measurements)
** Current wind speed in m/s (hover to see current wind gust speed)